Theta_e
310 306 304 304 303 306 309 308 307 307 308 308 308 308 308 308 310 313 313 313 314 317 315 314 312 312 311 313 314 314 314 313 312 313 316 315 316 315 315 315 315 315 318 320 318 316 315 315 316 317 320 319 317 317
310 305 304 304 304 307 309 309 308 307 308 308 308 308 308 308 308 312 315 312 312 315 316 313 313 311 311 311 313 313 313 313 312 313 314 314 314 314 314 318 312 316 313 316 316 315 313 315 315 315 315 316 315 316
309 305 304 304 304 308 309 309 308 308 308 308 308 308 308 308 308 311 315 313 313 317 316 316 316 312 312 311 311 313 313 312 313 312 312 314 314 312 315 313 312 312 309 312 313 312 314 314 314 314 313 313 313 314
309 305 304 304 304 307 309 310 309 309 308 308 309 308 308 308 308 311 315 314 314 316 318 318 314 314 312 312 312 311 311 311 312 312 312 314 314 312 312 312 311 310 308 311 312 312 311 312 310 310 310 311 312 312
310 305 304 304 305 305 308 310 311 309 310 309 309 308 308 308 309 310 314 314 314 315 320 318 316 315 313 313 312 312 312 312 312 315 313 313 311 310 310 311 311 306 306 309 310 306 306 307 308 308 309 310 311 312
309 304 304 304 304 305 307 309 312 310 309 310 309 309 309 309 309 313 318 315 314 314 317 320 318 316 313 313 313 312 312 312 312 311 311 310 310 311 313 312 310 308 306 306 307 306 306 306 307 307 307 308 309 310
306 304 304 304 305 305 306 309 311 311 310 309 309 309 309 309 311 314 316 313 311 313 315 320 319 318 315 314 312 311 312 313 312 313 312 311 312 310 312 313 310 309 307 307 306 306 306 305 306 305 305 307 308 310
304 304 304 304 305 306 306 308 310 312 310 310 309 309 309 310 310 313 314 310 309 312 314 319 320 320 316 316 315 307 311 311 314 314 313 311 314 312 313 311 309 310 309 308 307 306 306 304 304 303 303 304 307 309
304 304 304 304 305 306 306 308 310 312 310 309 309 309 311 311 315 315 311 309 310 312 316 317 324 319 318 317 312 309 309 314 313 316 315 313 314 312 313 310 309 309 309 309 306 306 306 306 303 302 302 303 304 307
304 304 305 305 306 306 306 310 310 312 310 309 310 313 317 316 312 310 311 314 313 314 313 317 319 317 319 319 316 314 311 315 318 316 313 316 316 312 309 309 309 308 308 308 308 307 306 306 304 303 302 303 303 304
304 305 305 306 306 306 306 310 311 310 310 314 319 320 314 311 312 313 317 319 320 319 319 319 319 317 317 321 321 316 317 316 318 317 314 315 315 310 309 308 308 308 307 307 307 307 306 306 306 305 304 302 302 303
304 305 306 306 306 307 308 310 312 312 319 318 319 317 314 314 317 321 324 323 323 322 322 322 318 318 317 318 320 319 317 317 317 313 313 316 314 310 310 309 307 309 308 307 307 307 306 306 306 306 306 304 302 302
305 306 306 306 309 309 312 312 312 314 314 318 318 319 320 324 323 324 322 322 323 322 318 317 319 319 320 318 319 318 318 318 314 315 317 314 312 311 310 309 308 308 307 307 306 306 305 305 306 306 305 306 304 303
306 306 307 307 311 311 311 310 310 311 314 323 324 325 326 325 323 324 322 326 322 320 318 317 318 323 318 317 317 318 317 313 314 316 314 314 313 311 308 309 308 308 308 307 306 306 305 305 305 305 305 304 305 306
306 307 307 309 311 312 310 308 310 312 319 324 324 328 324 323 323 324 322 324 321 318 314 316 320 316 316 316 314 313 312 314 315 314 312 313 312 309 308 308 308 308 307 306 305 305 305 305 304 305 304 304 304 305
307 310 315 313 312 310 309 309 309 316 321 324 324 324 322 325 323 323 321 321 317 317 317 315 316 315 315 314 313 312 313 314 315 312 312 311 311 310 309 308 308 307 306 306 305 305 305 304 304 304 304 304 304 304
309 316 312 307 308 311 311 315 319 322 324 325 325 323 324 324 323 324 321 320 317 316 317 315 315 315 314 314 314 314 315 313 311 311 311 311 310 309 308 307 307 306 307 306 305 305 304 304 304 304 305 305 304 305
312 313 310 308 311 311 315 316 322 324 326 326 326 324 324 323 321 319 318 317 317 317 316 316 315 317 316 316 317 315 312 311 311 310 310 310 309 307 306 306 305 306 306 306 305 305 304 303 304 304 304 304 304 304
308 309 308 313 312 318 322 324 322 326 325 328 324 326 325 324 320 318 318 317 316 315 316 316 317 317 317 317 313 311 311 310 308 309 311 308 306 305 305 305 305 305 305 305 303 303 304 304 304 303 303 304 303 303
313 316 318 318 314 322 324 325 326 328 328 326 326 326 325 322 320 318 317 317 317 318 317 315 315 315 313 311 311 312 310 309 308 308 308 308 305 305 305 304 304 304 304 304 304 301 303 303 303 303 302 303 303 303
318 319 315 316 316 321 323 325 326 326 324 329 327 327 324 321 321 320 319 318 315 314 314 313 313 313 312 310 309 308 310 307 308 307 306 305 304 305 304 304 304 303 303 303 303 303 303 303 303 303 303 303 303 302
319 315 322 321 324 327 328 327 327 326 327 325 324 324 323 322 321 319 318 316 315 314 313 313 312 312 312 311 310 309 310 309 309 307 303 303 305 304 304 304 302 303 303 303 303 303 303 302 302 303 303 303 302 301
317 320 325 326 328 329 328 325 327 325 325 324 323 323 321 321 321 319 317 315 314 312 311 311 311 312 313 312 313 312 312 309 309 307 306 304 304 304 303 302 302 302 302 302 302 302 303 300 302 301 303 303 302 302
319 324 327 328 329 328 327 327 324 324 324 322 321 322 321 321 320 317 316 315 313 313 314 313 312 313 312 313 311 310 309 306 307 306 305 304 304 303 301 301 300 300 300 301 301 301 302 301 301 302 301 302 302 302
323 323 325 320 325 327 325 324 323 323 323 323 322 321 321 320 319 317 316 315 314 313 313 313 312 313 312 311 308 308 306 304 305 306 304 304 303 302 301 301 300 299 299 300 300 301 301 302 301 301 302 302 301 301
319 322 328 325 326 326 324 323 323 323 323 324 324 323 321 320 317 316 316 316 315 314 314 314 313 311 310 307 306 305 304 304 304 304 303 302 301 301 301 301 300 299 299 300 301 301 302 302 302 301 300 299 299 301
320 323 326 327 327 326 326 325 324 324 324 325 324 325 321 318 318 318 317 316 315 313 312 309 307 307 307 305 304 303 303 302 303 302 301 301 300 300 300 301 300 300 299 300 300 301 301 301 300 301 301 300 300 300
323 325 327 327 327 326 327 327 325 325 324 325 324 325 322 320 320 319 319 315 312 310 308 306 305 305 304 304 303 303 302 302 302 301 301 300 300 300 300 298 298 297 298 299 299 300 300 301 301 301 300 300 300 299
324 324 326 327 328 328 329 327 325 323 323 324 325 325 323 322 320 319 316 313 310 308 307 306 305 304 303 302 301 301 302 303 303 303 303 303 301 300 300 300 300 300 299 298 297 299 299 299 299 300 299 299 299 299
323 324 326 326 327 328 329 325 325 326 326 325 325 324 322 320 318 317 314 312 311 310 307 306 305 305 304 303 302 301 301 301 302 302 303 302 300 300 300 300 300 300 300 299 299 299 298 299 299 299 298 298 298 298
325 326 327 327 326 328 327 327 326 326 326 326 325 325 324 321 315 313 313 312 312 309 307 305 305 304 304 303 302 302 302 301 300 300 299 299 300 300 300 300 300 300 299 299 299 299 299 298 298 298 298 298 298 298
326 327 326 326 330 331 328 328 328 328 327 328 328 326 324 321 320 315 313 312 311 310 307 305 305 303 301 301 302 301 300 300 299 299 299 299 299 299 299 299 299 299 299 299 299 299 299 299 298 298 298 298 297 297
326 326 326 326 326 330 329 328 329 328 328 328 328 327 326 325 324 318 312 311 310 310 308 306 304 302 301 301 300 299 300 299 298 297 297 298 298 298 298 299 299 298 298 298 299 299 299 299 299 298 298 298 297 298
Wind_Speed
12 13 17 20 22 22 17 14 11 4 3 3 3 2 1 2 4 5 3 2 6 3 7 3 4 2 3 5 5 9 4 1 5 3 4 3 3 3 1 3 8 5 5 9 12 16 19 9 6 8 7 7 10 11
12 13 16 20 21 20 16 13 9 3 1 1 2 1 1 1 4 1 1 1 3 4 6 2 3 1 1 2 2 5 4 5 4 3 3 3 2 3 6 3 6 3 4 5 6 7 2 1 6 10 12 9 11 13
11 13 16 19 19 18 15 12 7 3 1 1 1 1 2 2 3 2 5 2 3 4 5 6 5 5 4 4 4 2 4 4 2 3 4 3 2 2 3 2 5 3 7 4 12 12 11 9 11 7 8 10 13 15
11 13 16 17 17 17 14 11 6 2 2 2 4 3 4 3 2 3 9 2 7 8 3 3 6 6 3 5 3 2 2 4 3 5 3 1 1 5 2 6 1 2 7 5 7 14 17 1 11 12 13 14 16 16
10 12 15 16 16 16 14 10 5 1 2 3 6 5 4 3 3 6 9 4 4 7 5 0 8 8 7 6 5 4 3 4 2 3 3 1 0 1 3 3 0 2 3 3 4 13 11 12 12 14 13 14 16 16
10 11 14 15 15 16 13 9 6 4 4 5 6 5 5 4 2 6 3 4 3 4 4 1 4 7 7 5 3 4 4 3 5 3 1 0 1 2 2 2 1 4 4 6 5 10 11 13 13 11 13 15 16 16
9 10 13 14 14 15 13 10 7 5 7 6 6 5 5 6 4 5 4 3 5 6 3 4 3 4 8 5 2 3 6 4 4 2 3 2 4 4 3 3 5 6 4 4 7 10 9 10 9 13 15 17 16 17
8 10 12 13 15 15 14 11 8 5 9 7 6 4 4 5 8 8 5 5 3 5 5 3 4 6 11 4 3 1 1 2 4 3 3 4 3 2 2 8 9 3 4 5 4 6 6 11 13 13 18 17 13 12
8 10 12 14 16 17 16 9 7 4 8 8 5 1 2 4 4 1 4 4 4 4 2 3 3 4 7 3 3 3 2 4 4 3 3 2 2 2 6 6 9 8 5 7 4 8 10 11 14 14 14 15 15 14
9 10 13 15 16 18 16 6 5 3 6 6 4 4 3 2 5 1 2 3 4 4 4 4 5 6 7 6 5 4 3 3 3 4 2 3 3 5 2 4 5 7 8 7 8 9 10 11 10 11 14 13 11 13
9 12 15 16 18 18 14 4 5 8 8 4 7 1 4 4 2 3 3 5 5 4 5 5 7 7 3 3 4 5 3 3 3 4 2 2 2 4 5 4 5 5 5 7 6 8 8 9 8 4 7 14 17 16
9 13 17 20 23 19 8 6 10 7 3 3 4 1 4 3 4 6 5 5 5 3 3 6 2 4 1 1 3 3 3 2 2 3 2 1 2 4 4 8 6 5 8 7 8 7 9 10 11 11 8 5 16 15
11 14 18 24 19 7 8 5 9 8 3 4 3 3 3 5 3 6 3 1 2 4 1 5 9 5 3 1 2 1 3 4 3 3 2 2 3 5 4 4 8 6 3 7 6 8 9 11 10 10 11 10 9 11
11 16 19 11 4 6 4 1 3 6 4 4 6 4 5 5 2 1 6 10 7 2 2 3 7 5 3 1 2 3 5 2 1 1 3 4 4 6 4 4 5 6 8 7 10 9 10 11 13 11 10 10 10 8
14 19 15 9 5 2 5 8 4 6 5 4 2 4 6 8 13 4 3 1 3 2 0 6 4 3 4 1 3 3 2 2 2 1 3 4 5 5 7 7 8 5 4 8 10 10 9 10 11 10 9 7 9 10
16 7 2 4 5 12 14 6 10 5 4 3 5 10 6 6 7 9 8 7 3 2 5 3 2 1 1 2 2 3 4 3 4 7 7 4 5 5 6 7 7 7 8 5 10 10 9 9 8 9 8 7 7 8
9 2 3 9 12 2 12 2 6 5 4 4 4 6 7 7 7 2 7 5 3 4 5 2 1 3 3 3 4 5 4 5 5 3 4 6 5 5 7 9 8 5 6 5 9 6 6 7 8 6 7 8 6 9
2 6 11 10 2 5 3 5 4 4 6 1 5 3 8 6 7 7 7 6 5 4 2 1 2 3 3 4 4 4 6 3 4 5 4 5 3 5 10 9 9 2 2 7 11 6 7 9 7 8 9 6 9 9
14 15 18 8 6 4 4 6 5 3 3 4 5 4 6 5 4 4 3 6 7 3 3 1 2 2 3 3 5 4 4 4 5 4 5 3 1 2 6 6 9 8 4 3 5 6 5 7 12 9 10 8 12 7
5 1 2 3 8 5 3 3 3 4 4 4 5 6 3 3 4 1 1 3 3 3 3 3 4 4 1 2 3 3 5 6 5 5 3 5 6 7 5 4 2 7 3 6 2 8 4 1 2 7 10 9 6 9
1 1 2 6 6 6 4 3 3 2 5 3 5 3 1 2 3 3 2 1 2 4 5 2 3 6 9 10 10 10 3 9 7 6 8 7 11 11 10 10 8 11 22 13 9 4 9 4 9 6 10 6 8 9
1 4 3 4 5 6 4 3 4 4 2 2 3 2 2 2 2 3 4 4 4 5 4 5 6 6 4 3 6 5 7 6 5 6 6 5 5 6 5 12 16 9 6 14 13 4 4 9 6 12 7 8 4 9
4 3 4 4 3 1 4 1 3 2 3 5 1 2 2 2 2 2 1 2 3 4 4 6 1 5 7 7 2 4 3 6 7 7 6 7 12 8 10 11 8 8 7 6 12 9 4 5 10 5 5 6 9 7
2 4 3 4 6 3 3 2 2 1 2 3 3 2 4 4 3 2 2 4 3 3 3 1 6 6 6 12 5 4 10 12 10 3 4 6 6 5 6 5 5 7 11 6 9 7 2 8 4 0 3 5 6 6
3 3 3 4 4 3 4 3 2 2 2 2 2 2 3 2 2 1 2 3 3 2 1 3 5 5 4 6 7 9 5 9 9 6 6 4 3 2 2 4 7 8 8 6 5 10 8 2 3 2 2 5 5 7
2 6 4 4 4 4 1 2 2 1 2 2 2 2 1 2 2 3 3 5 4 4 5 6 6 6 5 7 6 8 8 7 5 7 6 7 7 6 5 5 7 9 8 9 7 9 6 8 5 6 4 8 9 4
3 5 5 2 3 1 3 2 3 3 2 2 0 0 1 2 3 3 3 1 3 5 2 4 5 7 6 6 6 6 7 7 9 9 7 7 8 6 8 9 10 7 6 9 7 7 6 4 3 5 5 3 6 6
4 3 7 8 4 3 3 3 3 3 2 2 1 2 2 2 3 3 3 4 4 3 2 3 4 4 5 5 4 5 6 7 7 7 7 7 7 6 7 9 9 5 6 6 8 5 7 4 3 3 7 4 4 6
4 5 5 5 4 3 3 3 3 1 2 2 2 4 1 3 2 5 6 7 6 6 6 6 5 5 5 5 4 1 3 6 6 2 2 4 6 6 2 6 7 6 5 8 6 6 7 7 6 6 6 6 4 4
5 5 5 5 5 4 3 2 4 4 2 3 2 2 3 3 4 5 8 8 7 6 4 4 4 2 2 3 6 4 3 1 1 1 3 4 5 4 4 4 4 5 7 4 5 6 2 1 2 2 3 5 4 4
4 6 6 5 4 1 2 1 2 2 3 4 3 5 3 4 5 7 9 9 7 6 6 6 5 3 2 3 5 5 5 5 5 5 6 7 7 6 4 3 3 4 6 4 2 4 5 1 2 4 6 8 8 7
5 6 5 6 3 6 2 3 3 4 4 4 5 4 3 3 4 7 10 11 10 9 5 5 6 6 4 5 4 6 9 8 7 7 5 6 6 6 5 4 3 3 3 2 2 4 3 4 6 7 8 8 7 7
7 6 6 6 4 4 5 3 3 3 4 4 4 4 5 4 3 3 8 13 12 9 9 7 9 9 10 9 9 10 9 8 8 7 6 8 9 5 1 4 4 3 2 2 3 3 3 3 5 6 5 5 5 5
Wind_Direction
301 317 328 335 339 341 339 345 352 5 33 6 352 357 48 103 121 28 66 11 326 351 81 52 104 234 178 283 312 20 278 303 18 288 335 359 327 348 257 270 307 303 263 225 237 247 251 61 310 272 22 319 319 319
295 312 326 333 337 339 336 344 350 1 29 350 334 313 164 154 137 313 271 304 319 288 44 39 30 105 227 296 310 325 35 18 350 329 358 32 317 321 323 357 339 290 357 317 283 241 189 93 290 303 297 299 305 304
290 309 324 331 336 337 334 341 342 337 342 173 245 218 187 208 188 284 341 340 288 263 208 187 178 151 155 175 191 290 45 348 338 304 318 5 289 2 326 352 323 351 3 304 315 265 291 325 314 345 349 302 292 284
285 305 320 329 336 337 331 338 335 341 317 174 175 181 199 224 218 262 294 335 284 290 279 150 142 172 168 147 172 233 291 303 275 293 294 221 282 342 327 314 275 324 303 277 270 293 331 233 349 324 316 295 289 284
278 302 319 327 336 334 329 331 325 188 180 181 181 192 217 233 281 282 281 260 297 312 319 333 166 164 201 171 196 215 268 304 221 258 210 123 311 260 265 273 13 223 292 301 296 309 290 286 297 308 297 295 287 285
272 300 315 325 333 331 326 317 315 219 206 202 201 205 231 239 277 291 237 188 253 317 284 261 124 162 184 233 213 301 293 267 287 295 95 2 87 252 252 295 100 59 315 320 283 322 311 314 311 318 310 301 291 279
271 299 312 325 330 327 325 307 297 236 215 210 213 217 235 239 243 270 334 347 319 304 256 276 151 131 183 184 59 17 317 272 284 221 262 164 196 207 285 330 10 153 245 301 347 345 352 345 331 338 332 323 306 282
272 298 310 323 327 327 325 300 273 256 218 212 216 226 241 261 275 271 239 263 231 256 267 265 293 154 172 159 177 94 217 322 256 240 246 188 141 10 281 318 343 59 269 258 351 19 45 358 350 360 351 349 360 358
273 295 309 321 325 327 326 292 255 250 210 200 207 164 189 224 234 192 236 228 217 258 242 220 265 325 174 117 128 165 172 219 243 221 274 105 80 215 268 339 338 14 354 342 41 14 23 38 14 6 3 7 6 359
278 298 308 317 321 325 324 285 223 214 179 169 181 210 224 178 221 183 195 210 206 206 220 242 261 268 194 162 178 161 189 230 221 234 244 146 233 240 55 339 359 354 7 355 1 18 13 37 47 22 13 8 7 1
283 300 307 315 316 316 310 248 188 142 135 216 213 53 109 140 239 237 244 223 174 231 206 230 243 293 174 225 200 203 166 240 248 177 210 226 259 58 29 359 350 20 2 6 7 11 28 22 41 53 32 22 12 10
289 302 311 315 308 297 259 202 176 172 280 348 4 199 134 209 220 245 228 185 204 252 78 287 19 238 340 50 227 172 189 253 269 173 149 277 230 91 28 334 348 12 345 21 7 16 23 23 8 37 61 70 34 17
296 310 319 320 312 228 173 190 204 217 270 245 220 193 218 194 262 234 256 64 178 154 129 346 318 269 151 5 276 112 235 205 194 151 210 236 104 70 17 347 332 9 330 358 30 28 24 30 41 37 25 85 103 32
310 315 317 312 106 130 146 64 212 194 249 241 193 246 241 216 228 50 359 323 62 352 353 232 267 6 1 71 256 247 230 242 64 34 352 77 34 46 9 320 333 20 338 5 19 38 40 31 54 58 48 39 40 67
320 320 313 185 176 215 293 303 209 180 268 254 242 250 234 18 344 347 187 151 46 302 295 281 92 154 205 7 276 335 279 48 214 301 70 94 50 33 359 348 343 28 309 6 9 22 12 36 49 47 61 47 49 51
326 338 193 205 241 291 291 217 158 204 243 245 246 259 314 335 14 339 15 35 349 357 241 249 121 256 291 340 268 288 11 1 24 335 65 71 32 9 352 340 336 338 339 18 6 5 360 7 20 59 40 49 57 60
336 287 304 307 316 170 131 206 187 218 253 234 216 85 261 11 23 300 15 25 2 310 9 18 330 35 330 277 14 20 9 345 27 23 47 22 27 331 337 332 327 354 319 13 350 349 354 349 335 29 64 72 52 46
324 314 304 310 353 178 224 220 247 250 243 22 252 4 22 38 1 43 35 14 324 16 66 39 13 55 229 352 18 351 29 337 341 347 70 35 40 351 319 338 331 313 358 20 314 356 334 333 334 4 48 57 67 63
296 281 271 288 190 256 226 195 238 272 282 359 42 53 48 36 90 72 66 58 60 84 134 2 111 323 10 1 338 359 17 335 1 28 97 152 289 2 309 330 23 316 248 261 286 317 22 14 352 0 33 28 62 49
330 337 177 244 180 251 234 195 207 261 311 3 44 41 81 90 71 349 280 65 39 31 291 46 13 92 0 26 349 338 353 346 335 320 151 181 290 113 306 331 258 308 17 263 34 283 13 336 115 23 32 32 27 61
54 240 345 136 204 240 293 294 229 341 338 31 79 46 43 39 28 63 344 61 13 23 42 23 54 59 13 7 9 343 56 349 338 352 5 342 351 7 8 359 35 9 350 324 125 13 319 21 46 63 35 37 56 65
337 282 228 210 253 196 253 269 309 328 259 242 1 139 143 61 34 33 348 28 44 30 22 40 24 350 134 32 343 319 11 327 289 316 228 245 305 21 45 6 350 336 7 7 303 113 324 16 57 62 358 39 39 53
312 227 228 225 250 196 263 266 268 17 350 330 235 93 33 68 33 240 158 74 93 82 41 56 286 250 294 285 158 295 214 281 315 267 348 3 65 41 353 0 5 319 11 10 7 5 33 48 21 323 106 46 39 16
247 253 239 220 201 255 162 241 167 257 302 354 28 15 29 33 344 315 26 73 84 246 133 270 308 327 206 225 236 96 10 321 309 119 12 63 51 30 28 6 7 11 10 12 328 115 347 83 190 192 19 316 66 91
238 263 166 265 251 228 222 188 219 220 8 4 339 44 56 193 282 15 350 57 60 8 356 254 281 316 327 16 347 87 28 337 341 27 42 80 44 168 97 67 39 20 19 55 24 28 5 18 296 61 82 73 91 77
257 193 197 220 164 235 144 241 209 308 11 298 65 77 257 332 317 11 32 8 5 5 360 348 340 334 45 30 4 19 13 355 44 61 47 15 32 29 49 50 71 54 48 43 33 51 65 119 122 79 76 100 72 0
246 197 192 236 312 166 249 245 296 298 272 257 198 128 263 302 5 61 104 132 323 58 2 323 1 0 27 57 62 44 38 43 44 65 64 58 58 46 18 36 70 55 19 35 51 56 70 98 82 81 71 61 83 75
254 273 217 184 217 226 283 300 252 238 227 95 302 242 288 354 14 80 78 109 116 130 103 62 53 53 61 68 85 111 96 96 101 99 103 83 64 64 83 75 80 75 46 57 18 48 52 41 66 62 67 66 44 31
230 206 236 213 222 202 223 244 264 200 47 261 262 326 327 107 93 139 144 145 151 158 162 147 128 129 119 102 76 65 177 175 147 150 266 128 113 100 74 109 126 129 90 83 88 64 63 50 33 31 41 49 37 26
221 196 212 217 209 239 209 263 334 46 329 343 358 156 176 146 137 145 162 173 187 182 149 143 158 201 69 84 96 89 91 85 274 184 177 115 122 119 105 95 105 102 95 100 107 114 110 217 46 3 18 359 3 356
163 194 243 255 229 157 36 345 284 272 252 242 223 284 299 120 152 205 202 198 192 155 153 162 154 139 148 144 134 153 114 86 86 81 95 123 131 127 112 105 90 103 108 118 53 36 64 324 3 8 40 27 29 5
202 226 233 246 236 113 163 235 238 246 218 206 238 230 168 221 237 154 197 200 192 186 154 166 158 123 119 116 103 97 107 124 131 135 142 123 124 131 137 125 121 96 89 81 51 67 47 18 44 30 32 40 39 41
215 219 239 252 194 182 180 219 232 254 227 241 251 231 214 242 295 103 170 194 200 184 171 161 136 140 140 136 133 135 135 121 141 144 148 133 137 133 126 122 111 110 116 72 71 105 102 65 70 63 62 48 33 25